Location: Monrovia
(34.7865°N, 86.7139°W)
Time: 00:34:16
(UTC+00:00)

NOSS 3-2 (A) - Pass Details

Date: 14 July 2020
Orbit: 798 x 1410 km, 63.4° (Epoch: 08 August)

Event Time Altitude Azimuth Distance (km) Brightness Sun altitude
Exits shadow 09:31:03 19° 234° (SW) 1,879 4.4 -13.5°
Maximum altitude 09:34:56 53° 306° (NW) 1,063 3.6 -12.9°
Drops below altitude 10° 09:40:59 10° 23° (NNE) 2,705 6.8 -11.9°
Sets 09:43:49 0° 28° (NNE) 3,750 7.8 -11.4°
